Vorticity
10 12 9 13 21 8 9 11 -1 -8 -5 17 -0 11 6 18 2 -6 6 10 7 7 8 8 7 9 5 6 8 6 4 3 5 8 10 11 10 12 7 2 3 2 0 2
3 14 15 12 18 6 7 4 11 9 -3 31 12 6 11 7 4 7 20 0 6 9 6 8 7 7 7 7 6 6 5 3 4 10 11 6 4 2 3 2 -0 0 0 -2
13 9 24 8 12 3 10 7 7 7 14 29 3 9 1 3 3 4 5 7 16 11 11 5 2 3 3 5 6 5 7 5 4 5 9 5 5 4 2 1 -1 2 11 2
11 8 10 3 9 7 5 13 8 1 10 3 7 6 10 7 1 3 4 4 6 8 5 6 8 3 -2 1 4 6 8 5 5 4 8 7 2 3 0 1 1 5 5 4
4 7 8 2 7 11 -3 14 2 4 13 6 2 8 9 12 1 8 9 -2 5 4 3 3 1 1 2 4 -2 2 6 8 8 8 10 10 3 2 3 3 2 3 5 6
7 16 7 6 14 9 5 9 7 6 2 -1 2 4 13 12 6 3 9 11 1 11 5 3 2 1 1 2 4 -1 4 9 10 12 7 6 6 2 1 3 1 5 12 5
12 15 8 -1 12 10 6 8 2 9 3 1 2 3 3 2 0 3 6 13 17 5 13 6 5 3 5 2 -1 11 8 13 3 5 2 8 9 2 5 -1 3 5 8 13
15 8 10 6 19 16 7 10 7 1 6 5 7 4 5 -0 1 8 17 3 10 8 8 7 15 12 5 3 9 7 9 6 4 7 12 6 6 7 5 8 5 5 6 7
17 12 8 11 23 4 -1 4 6 4 5 2 9 6 3 9 14 24 4 21 0 17 4 8 18 6 12 15 14 11 6 5 5 3 1 2 6 9 6 7 9 2 14 14
14 13 9 7 14 13 2 5 3 2 -1 3 2 9 18 11 7 9 2 19 12 0 -7 5 17 16 15 17 14 15 1 3 2 -0 1 10 6 7 6 7 6 5 12 11
12 10 10 3 9 16 13 1 2 -2 4 4 -4 3 16 14 20 9 10 4 5 5 11 10 8 7 5 4 3 3 8 -1 1 1 8 7 7 3 5 6 4 12 5 -2
14 12 15 6 2 8 7 2 4 7 -1 0 -2 2 26 9 12 11 11 12 8 8 6 12 2 10 4 3 5 5 3 3 -0 9 2 4 5 2 4 4 9 -2 -2 0
5 4 14 15 6 1 1 6 2 8 9 4 9 -11 18 10 7 5 10 9 10 11 17 9 2 12 8 5 6 7 8 7 3 4 4 4 5 7 10 9 7 4 6 4
5 9 10 20 13 15 11 14 14 3 6 3 0 6 14 6 6 9 11 10 11 12 16 12 15 10 8 3 7 5 3 4 9 7 7 7 8 16 12 16 9 9 6 7
2 5 12 17 18 13 2 2 -2 1 -2 9 3 11 14 6 9 4 12 15 14 10 9 9 9 6 5 5 4 6 8 10 10 9 9 9 8 5 9 6 6 6 4 6
0 2 8 10 12 9 13 13 18 16 3 9 13 11 8 7 5 5 8 10 11 13 9 7 7 7 6 6 6 8 11 10 9 8 6 6 5 7 8 8 6 5 6 9
5 -1 8 6 12 14 -2 17 8 1 9 11 10 11 8 9 6 4 5 6 11 13 7 6 6 5 5 8 8 12 8 7 6 5 5 6 7 7 8 8 7 8 11 14
3 3 5 10 4 8 2 8 4 7 9 6 9 10 7 8 6 9 9 9 11 9 10 10 8 9 9 11 9 8 6 4 5 5 7 6 7 8 9 9 10 10 13 19
8 10 6 2 2 5 14 8 6 8 6 7 12 23 13 9 13 12 11 13 12 12 11 11 10 8 11 8 7 5 5 5 6 6 6 7 7 9 10 10 8 11 11 10
2 1 10 8 2 13 3 7 4 6 10 28 9 10 15 11 12 9 8 12 10 9 7 6 12 10 8 6 5 5 5 6 6 7 6 6 8 10 9 9 10 13 9 8
5 5 7 18 5 13 1 5 3 6 11 11 12 12 10 11 12 11 16 16 11 8 13 11 8 5 5 5 5 6 7 7 7 6 6 8 8 9 9 11 13 11 8 6
9 3 3 13 11 -4 0 6 3 11 12 14 17 14 15 18 20 16 16 14 12 9 7 6 5 5 4 6 7 7 7 7 7 6 7 8 9 10 12 15 13 7 7 7
-2 1 10 9 17 12 6 8 8 13 12 16 21 18 21 20 17 13 8 6 5 4 5 4 4 5 6 7 6 6 8 8 7 6 7 8 9 12 15 10 8 6 3 2
6 5 1 6 12 14 2 4 9 11 10 13 13 10 6 5 5 4 3 3 3 2 3 4 5 6 6 6 7 9 10 8 7 5 6 9 10 12 13 7 0 1 2 3
3 4 8 13 16 11 6 9 7 9 9 9 6 3 3 2 3 3 3 2 2 2 3 5 5 7 7 8 3 2 7 8 7 7 8 11 12 13 10 5 3 1 6 5
5 8 1 7 14 8 8 6 10 11 8 6 2 0 -0 1 2 2 1 1 1 2 4 4 7 9 9 6 4 5 9 8 7 8 11 13 12 10 7 5 2 5 12 10
Height
5760 5760 5759 5758 5759 5760 5763 5765 5766 5767 5770 5771 5772 5774 5774 5774 5773 5774 5775 5775 5774 5774 5775 5777 5778 5779 5779 5780 5782 5784 5785 5786 5786 5786 5787 5788 5788 5790 5792 5792 5792 5794 5795 5795
5759 5758 5756 5757 5758 5760 5762 5764 5765 5765 5767 5769 5770 5772 5775 5774 5773 5773 5773 5775 5775 5776 5777 5777 5777 5778 5779 5780 5781 5783 5783 5784 5784 5784 5785 5785 5787 5787 5787 5789 5791 5792 5792 5790
5756 5757 5756 5756 5757 5760 5762 5762 5763 5764 5767 5767 5770 5772 5773 5774 5774 5773 5773 5774 5775 5776 5776 5777 5778 5778 5779 5780 5780 5780 5780 5780 5780 5780 5781 5784 5784 5784 5784 5785 5786 5786 5785 5783
5754 5754 5754 5755 5756 5756 5759 5762 5762 5763 5766 5768 5769 5771 5771 5772 5773 5774 5774 5773 5773 5773 5775 5776 5776 5777 5778 5779 5778 5779 5780 5779 5777 5778 5779 5780 5780 5781 5780 5781 5781 5779 5777 5773
5751 5751 5752 5752 5754 5755 5757 5760 5761 5762 5764 5766 5768 5771 5771 5771 5772 5773 5773 5773 5773 5773 5773 5774 5774 5775 5775 5776 5776 5776 5776 5776 5777 5777 5777 5777 5778 5778 5777 5775 5774 5772 5768 5765
5746 5748 5750 5751 5752 5753 5754 5756 5759 5761 5762 5764 5765 5767 5769 5771 5771 5772 5771 5771 5771 5771 5772 5772 5772 5771 5772 5772 5773 5773 5773 5773 5774 5774 5774 5774 5774 5773 5771 5770 5768 5765 5761 5757
5742 5743 5746 5747 5749 5750 5750 5753 5755 5759 5760 5761 5762 5764 5767 5768 5768 5768 5769 5769 5769 5769 5769 5769 5769 5769 5769 5769 5770 5770 5770 5770 5770 5771 5771 5770 5768 5766 5764 5762 5758 5755 5753 5750
5737 5738 5742 5743 5745 5747 5747 5750 5753 5754 5756 5758 5759 5760 5763 5764 5763 5764 5764 5764 5765 5766 5767 5766 5766 5765 5765 5765 5765 5766 5766 5766 5767 5767 5766 5764 5762 5759 5756 5753 5751 5748 5745 5742
5732 5733 5737 5738 5741 5743 5744 5747 5750 5751 5753 5755 5756 5758 5758 5759 5757 5758 5758 5760 5761 5761 5763 5763 5762 5761 5761 5760 5760 5760 5761 5762 5762 5761 5759 5757 5754 5751 5748 5745 5743 5740 5737 5733
5727 5729 5732 5734 5736 5738 5741 5744 5746 5748 5750 5750 5751 5753 5753 5754 5753 5752 5753 5753 5755 5756 5756 5757 5757 5757 5757 5756 5755 5754 5755 5756 5755 5754 5752 5750 5746 5742 5739 5737 5735 5731 5727 5723
5720 5723 5728 5729 5731 5735 5737 5739 5742 5744 5745 5745 5746 5747 5748 5748 5747 5748 5748 5748 5748 5749 5750 5751 5752 5752 5752 5751 5751 5750 5750 5750 5749 5746 5743 5741 5738 5735 5732 5729 5726 5722 5718 5714
5715 5717 5720 5725 5727 5729 5732 5735 5737 5737 5741 5741 5740 5742 5743 5742 5741 5742 5742 5742 5743 5743 5743 5745 5746 5746 5746 5746 5746 5746 5745 5744 5742 5739 5736 5732 5730 5727 5723 5720 5716 5712 5710 5704
5709 5711 5714 5718 5721 5723 5726 5729 5731 5733 5736 5735 5735 5738 5737 5736 5735 5735 5736 5736 5737 5738 5738 5738 5738 5739 5740 5740 5739 5739 5739 5738 5735 5732 5729 5726 5722 5718 5714 5710 5706 5702 5696 5691
5702 5705 5708 5712 5718 5721 5722 5726 5727 5728 5728 5729 5730 5732 5732 5730 5730 5731 5729 5730 5731 5731 5731 5732 5732 5732 5732 5731 5731 5731 5729 5728 5726 5723 5720 5717 5714 5710 5705 5700 5695 5689 5684 5678
5696 5700 5704 5708 5710 5712 5716 5718 5719 5720 5722 5721 5725 5724 5726 5726 5725 5724 5724 5723 5724 5724 5724 5724 5725 5725 5726 5726 5725 5724 5723 5721 5718 5715 5712 5708 5703 5697 5692 5687 5683 5677 5670 5663
5691 5695 5699 5701 5704 5706 5708 5711 5712 5714 5716 5716 5716 5717 5719 5718 5719 5718 5717 5717 5717 5717 5718 5718 5718 5718 5718 5718 5718 5716 5713 5711 5709 5705 5699 5694 5689 5685 5681 5675 5669 5662 5656 5650
5685 5690 5693 5695 5698 5700 5701 5705 5706 5708 5709 5710 5709 5712 5711 5711 5711 5711 5710 5710 5709 5709 5710 5710 5710 5711 5710 5709 5708 5706 5704 5701 5697 5692 5688 5684 5679 5674 5668 5662 5656 5649 5643 5637
5680 5684 5687 5689 5691 5690 5698 5700 5701 5701 5703 5702 5702 5703 5702 5703 5703 5703 5702 5701 5701 5701 5701 5702 5702 5702 5700 5699 5698 5695 5692 5688 5685 5681 5677 5672 5667 5662 5655 5649 5642 5635 5629 5624
5675 5679 5680 5681 5684 5688 5690 5694 5696 5694 5696 5695 5694 5692 5692 5693 5693 5693 5694 5693 5693 5694 5694 5695 5694 5693 5692 5690 5688 5684 5681 5678 5674 5670 5666 5661 5655 5648 5641 5635 5628 5621 5616 5609
5668 5671 5674 5675 5676 5680 5687 5688 5689 5688 5689 5687 5684 5682 5683 5683 5684 5685 5685 5686 5687 5687 5686 5686 5685 5684 5683 5680 5677 5674 5670 5667 5663 5659 5653 5647 5641 5634 5627 5621 5615 5608 5601 5595
5661 5665 5666 5669 5670 5676 5679 5680 5680 5680 5682 5678 5676 5676 5676 5675 5676 5677 5678 5679 5679 5679 5679 5678 5677 5675 5673 5670 5668 5665 5661 5657 5651 5646 5640 5633 5627 5620 5614 5607 5600 5593 5587 5580
5654 5658 5660 5662 5664 5668 5673 5672 5673 5672 5670 5670 5670 5669 5668 5668 5669 5670 5671 5672 5672 5671 5671 5670 5669 5667 5664 5660 5657 5653 5649 5644 5638 5633 5626 5620 5614 5607 5599 5592 5585 5578 5572 5565
5647 5652 5654 5657 5659 5662 5665 5665 5665 5664 5663 5662 5662 5662 5662 5662 5663 5664 5664 5664 5664 5664 5663 5662 5659 5656 5653 5649 5645 5640 5635 5630 5625 5619 5613 5606 5599 5592 5584 5577 5570 5562 5556 5549
5639 5644 5647 5649 5653 5655 5656 5658 5658 5657 5657 5657 5656 5657 5657 5657 5658 5658 5658 5657 5656 5655 5653 5651 5648 5644 5640 5636 5632 5628 5622 5617 5611 5604 5597 5590 5583 5576 5569 5561 5554 5545 5538 5529
5632 5637 5640 5642 5645 5647 5649 5650 5649 5650 5651 5651 5651 5651 5651 5651 5651 5651 5650 5649 5647 5645 5642 5639 5636 5632 5628 5623 5619 5613 5607 5601 5595 5588 5581 5575 5567 5560 5552 5545 5537 5528 5518 5509
5624 5629 5633 5635 5638 5638 5641 5641 5642 5644 5644 5645 5645 5645 5644 5644 5643 5642 5641 5639 5636 5634 5631 5627 5623 5618 5614 5608 5603 5597 5591 5585 5578 5571 5565 5558 5551 5545 5538 5529 5519 5509 5499 5488